Home   Weather   Almería   Past weeks

Flag for Spain Past Weather in Almería, Spain — Yesterday and Last 2 Weeks

Now
78 °F

Overcast.


Feels Like: 79 °F
Forecast: 68 / 83 °F
Wind: 14 mph from East

Location: Almeria / Aeropuerto

Current Time: Sep 26, 2016 at 9:09:59 PM

Latest Report: Sep 26, 2016 at 8:00 PM


Visibility: 31 mi

Pressure: 30.07 "Hg

Humidity: 64%

Dew Point: 64 °F

Location of AlmeríaLocation

Past Weather in Almería — Graph

°F

Almería Temperature Yesterday

Maximum temperature yesterday: 79 °F (at 1:00 PM)
Minimum temperature yesterday: 67 °F (at 7:00 AM)
Average temperature yesterday: 74 °F

High & Low Weather Summary for the Past Weeks

 TemperatureHumidityPressure
High95 °F (Sep 12, 4:00 PM)91% (Sep 21, 5:00 AM)30.21 "Hg (Sep 21, 5:00 AM)
Low64 °F (Sep 21, 8:00 AM)22% (Sep 12, 5:00 PM)29.82 "Hg (Sep 13, 8:00 PM)
Average75 °F65%30.04 "Hg
* Reported Sep 11 7:00 PM — Sep 26 7:00 PM, Almería, Weather by CustomWeather, © 2016

Note: Actual official high and low records may vary slightly from our data, if they occured in-between our weather recording intervals... More about our weather records

Advertising

Almería Weather History for the Previous 24 Hours

Scroll right to see more
 ConditionsComfort  
Time TempWeatherWind HumidityBarometerVisibility
7:00 PM
Mon, Sep 26
81 °FWarm.15 mph53%30.06 "HgN/A
6:00 PM83 °FWarm.15 mph45%30.04 "HgN/A
4:00 PM86 °FWarm.16 mph45%30.05 "HgN/A
3:00 PM85 °FWarm.18 mph47%30.06 "HgN/A
2:00 PM83 °FOvercast.20 mph50%30.07 "Hg31 mi
1:00 PM83 °FWarm.14 mph52%30.09 "HgN/A
12:00 PM82 °FWarm.14 mph45%30.09 "HgN/A
11:00 AM78 °FOvercast.6 mph54%30.10 "Hg31 mi
10:00 AM76 °FMild.7 mph59%30.09 "HgN/A
9:00 AM73 °FMild.10 mph67%30.08 "HgN/A
8:00 AM72 °FOvercast.10 mph70%30.07 "Hg19 mi
7:00 AM71 °FMild.12 mph74%30.07 "HgN/A
6:00 AM71 °FMild.7 mph79%30.07 "HgN/A
5:00 AM69 °FPassing clouds.3 mph84%30.08 "Hg12 mi
4:00 AM71 °FMild.2 mph81%30.09 "HgN/A
3:00 AM71 °FMild.2 mph82%30.09 "HgN/A
2:00 AM72 °FMild.3 mph83%30.09 "HgN/A
1:00 AM71 °FMild.6 mph82%30.10 "HgN/A
12:00 AM72 °FMild.3 mph82%30.10 "HgN/A
11:00 PM
Sun, Sep 25
72 °FMild.2 mph81%30.10 "HgN/A
10:00 PM73 °FMild.No wind83%30.09 "HgN/A
9:00 PM74 °FMild.1 mph82%30.08 "HgN/A
Weather by CustomWeather, © 2016

See weather overviewHow to use our weather pages